Date String (YYYY-MM-DD hh:mm:ss) UTC,Instrument flags,absolute air pressure of the measurement (hPa),sample flow rate (lpm),inlet stack bypass flow (lpm),air temperature of the measurement (°C),ambient temperature measured by the external sensor (°C),aerosol sample conditioner tube jacket temperature (°C),OPC LED temperature (°C),internal box temperature (°C),relative humidity of the measurement (%),span deviation,mass concentration of particles derived from Lorenz-Mie calculation of OPC scattering (μg/m³),mass concentration of particles derived from Lorenz-Mie calculation of OPC scattering (μg/m³),mass concentration of particles derived from Lorenz-Mie calculation of OPC scattering (μg/m³)
DateTimeUTC,F1_M11,P_M11,Q1_M11,Q2_M11,T1_M11,T2_M11,T3_M11,T4_M11,T5_M11,U1_M11,ZSPAN_M11,X2_M11,X0_M11,X1_M11
2023-07-27 16:00:00,SystemResetWarning,0833.8,4.99,000.00,029.2,027.2,000.0,037.6,030.6,31.0,0000.0,0003.29,0007.87,0002.45
2023-07-27 16:01:00,SystemResetWarning,0833.8,4.99,000.00,029.3,027.4,000.0,037.6,030.7,30.4,0000.0,0003.28,0007.98,0002.45
2023-07-27 16:02:00,SystemResetWarning,0833.8,5.00,000.00,029.3,026.5,000.0,037.5,030.7,29.8,0000.0,0003.34,0008.64,0002.47
2023-07-27 16:03:00,SystemResetWarning,0833.7,5.00,000.00,029.2,025.3,000.0,037.4,030.4,29.7,0000.0,0003.36,0008.85,0002.47
2023-07-27 16:04:00,SystemResetWarning,0833.7,5.00,000.00,029.1,025.3,000.0,037.3,030.3,30.4,0000.0,0003.35,0009.45,0002.46
2023-07-27 16:05:00,SystemResetWarning,0833.7,5.01,000.00,029.1,025.6,000.0,037.4,030.2,33.2,0000.0,0003.33,0009.25,0002.44
2023-07-27 16:06:00,SystemResetWarning,0833.7,5.01,000.00,029.0,026.0,000.0,037.4,030.3,32.8,0000.0,0003.34,0008.65,0002.46
2023-07-27 16:07:00,SystemResetWarning,0833.7,5.00,000.00,029.0,026.4,000.0,037.4,030.4,32.6,0000.0,0003.36,0008.22,0002.49
2023-07-27 16:08:00,SystemResetWarning,0833.7,5.00,000.00,029.0,026.8,000.0,037.4,030.5,32.3,0000.0,0003.38,0008.29,0002.50
2023-07-27 16:09:00,SystemResetWarning,0833.7,5.00,000.00,029.1,027.2,000.0,037.4,030.6,33.5,0000.0,0003.39,0008.34,0002.53
2023-07-27 16:10:00,SystemResetWarning,0833.7,4.99,000.00,029.1,027.0,000.0,037.4,030.6,32.5,0000.0,0003.39,0008.39,0002.55
2023-07-27 16:11:00,SystemResetWarning,0833.7,4.99,000.00,029.1,025.8,000.0,037.3,030.5,33.0,0000.0,0003.39,0009.20,0002.56
2023-07-27 16:12:00,SystemResetWarning,0833.7,5.02,000.00,029.0,025.1,000.0,037.2,030.3,32.3,0000.0,0003.39,0009.78,0002.58
2023-07-27 16:13:00,SystemResetWarning,0833.6,5.00,000.00,029.0,025.4,000.0,037.2,030.2,33.3,0000.0,0003.37,0009.20,0002.59
2023-07-27 16:14:00,SystemResetWarning,0833.7,4.99,000.00,028.9,025.8,000.0,037.2,030.2,34.7,0000.0,0003.34,0008.85,0002.61
2023-07-27 16:15:00,SystemResetWarning,0833.7,5.01,000.00,029.0,026.2,000.0,037.3,030.3,36.2,0000.0,0003.36,0008.21,0002.64
2023-07-27 16:16:00,SystemResetWarning,0833.7,5.01,000.00,029.2,026.6,000.0,037.3,030.5,37.4,0000.0,0003.40,0008.38,0002.68
2023-07-27 16:17:00,SystemResetWarning,0833.7,4.99,000.00,029.5,027.0,000.0,037.3,030.8,36.7,0000.0,0003.43,0008.48,0002.69
2023-07-27 16:18:00,SystemResetWarning,0833.7,5.01,000.00,030.0,027.2,000.0,037.4,030.9,34.4,0000.0,0003.41,0008.41,0002.70
2023-07-27 16:19:00,SystemResetWarning,0833.7,4.98,000.00,030.3,026.5,000.0,037.4,030.9,33.1,0000.0,0003.41,0008.47,0002.70
2023-07-27 16:20:00,SystemResetWarning,0833.7,5.01,000.00,030.4,025.3,000.0,037.4,030.7,33.3,0000.0,0003.39,0008.53,0002.70
2023-07-27 16:21:00,SystemResetWarning,0833.7,5.01,000.00,030.5,025.2,000.0,037.4,030.6,33.7,0000.0,0003.39,0008.54,0002.70
2023-07-27 16:22:00,SystemResetWarning,0833.7,5.00,000.00,030.4,025.6,000.0,037.6,030.5,34.5,0000.0,0003.40,0008.64,0002.72
2023-07-27 16:23:00,SystemResetWarning,0833.7,4.99,000.00,030.4,026.0,000.0,037.7,030.5,34.1,0000.0,0003.44,0007.85,0002.74
2023-07-27 16:24:00,SystemResetWarning,0833.7,5.00,000.00,030.5,026.4,000.0,037.8,030.6,33.9,0000.0,0003.47,0007.91,0002.75
2023-07-27 16:25:00,SystemResetWarning,0833.8,5.01,000.00,030.5,026.8,000.0,037.9,030.7,34.3,0000.0,0003.51,0007.95,0002.77
2023-07-27 16:26:00,SystemResetWarning,0833.7,5.01,000.00,030.5,027.1,000.0,038.0,030.8,33.7,0000.0,0003.50,0007.98,0002.77
2023-07-27 16:27:00,SystemResetWarning,0833.8,4.99,000.00,030.6,027.1,000.0,038.0,030.9,31.8,0000.0,0003.50,0007.80,0002.78
2023-07-27 16:28:00,SystemResetWarning,0833.7,4.99,000.00,030.6,025.9,000.0,038.0,030.7,32.6,0000.0,0003.48,0007.65,0002.79
2023-07-27 16:29:00,SystemResetWarning,0833.7,5.01,000.00,030.5,025.2,000.0,037.9,030.6,34.0,0000.0,0003.50,0008.12,0002.80
2023-07-27 16:30:00,SystemResetWarning,0833.7,5.01,000.00,030.5,025.4,000.0,038.0,030.6,31.6,0000.0,0003.53,0008.16,0002.83
2023-07-27 16:31:00,SystemResetWarning,0833.8,4.98,000.00,030.4,025.8,000.0,038.1,030.5,32.5,0000.0,0003.53,0008.03,0002.85
2023-07-27 16:32:00,SystemResetWarning,0833.7,5.00,000.00,030.4,026.2,000.0,038.1,030.6,34.6,0000.0,0003.60,0008.23,0002.88
2023-07-27 16:33:00,SystemResetWarning,0833.8,5.02,000.00,030.4,026.6,000.0,038.2,030.7,33.6,0000.0,0003.63,0007.72,0002.93
2023-07-27 16:34:00,SystemResetWarning,0833.8,4.98,000.00,030.5,027.0,000.0,038.2,030.8,33.6,0000.0,0003.64,0007.88,0002.95
2023-07-27 16:35:00,SystemResetWarning,0833.8,5.02,000.00,030.5,027.3,000.0,038.2,030.9,34.1,0000.0,0003.64,0008.30,0002.98
2023-07-27 16:36:00,SystemResetWarning,0833.8,4.98,000.00,030.6,026.7,000.0,038.2,030.9,33.7,0000.0,0003.59,0008.21,0002.97
2023-07-27 16:37:00,SystemResetWarning,0833.8,5.00,000.00,030.5,025.5,000.0,038.1,030.8,34.1,0000.0,0003.57,0008.08,0002.97
2023-07-27 16:38:00,SystemResetWarning,0833.8,5.00,000.00,030.5,025.2,000.0,038.1,030.7,35.0,0000.0,0003.59,0008.09,0002.98
2023-07-27 16:39:00,SystemResetWarning,0833.8,5.01,000.00,030.5,025.5,000.0,038.1,030.5,36.0,0000.0,0003.57,0008.10,0003.00
2023-07-27 16:40:00,SystemResetWarning,0833.8,5.02,000.00,030.6,025.9,000.0,038.2,030.7,34.4,0000.0,0003.60,0007.90,0003.03
2023-07-27 16:41:00,SystemResetWarning,0833.8,4.98,000.00,030.7,026.3,000.0,038.2,030.8,33.3,0000.0,0003.59,0007.66,0003.04
2023-07-27 16:42:00,SystemResetWarning,0833.8,5.00,000.00,030.9,026.7,000.0,038.3,030.9,36.4,0000.0,0003.66,0007.83,0003.08
2023-07-27 16:43:00,SystemResetWarning,0833.8,5.02,000.00,031.1,027.1,000.0,038.4,031.1,37.1,0000.0,0003.68,0007.77,0003.08
2023-07-27 16:44:00,SystemResetWarning,0833.8,4.99,000.00,031.4,027.2,000.0,038.4,031.3,35.1,0000.0,0003.66,0007.76,0003.07
2023-07-27 16:45:00,SystemResetWarning,0833.8,5.00,000.00,031.7,026.0,000.0,038.4,031.2,33.3,0000.0,0003.68,0007.64,0003.09
2023-07-27 16:46:00,SystemResetWarning,0833.8,4.98,000.00,031.9,025.3,000.0,038.4,031.1,32.9,0000.0,0003.69,0007.03,0003.10
2023-07-27 16:47:00,SystemResetWarning,0833.8,5.02,000.00,031.9,025.4,000.0,038.4,030.9,33.3,0000.0,0003.72,0007.38,0003.12
2023-07-27 16:48:00,SystemResetWarning,0833.8,5.01,000.00,031.8,025.8,000.0,038.6,030.8,33.9,0000.0,0003.77,0007.91,0003.14
2023-07-27 16:49:00,SystemResetWarning,0833.8,4.99,000.00,031.8,026.2,000.0,038.7,030.9,32.3,0000.0,0003.80,0008.18,0003.16
2023-07-27 16:50:00,SystemResetWarning,0833.8,5.01,000.00,031.8,026.6,000.0,038.9,031.0,31.3,0000.0,0003.86,0009.02,0003.18
2023-07-27 16:51:00,SystemResetWarning,0833.7,5.00,000.00,031.7,027.0,000.0,039.0,031.1,32.4,0000.0,0003.87,0009.05,0003.20
2023-07-27 16:52:00,SystemResetWarning,0833.8,4.97,000.00,031.7,027.1,000.0,039.0,031.2,35.5,0000.0,0003.89,0009.10,0003.22
2023-07-27 16:53:00,SystemResetWarning,0833.8,5.02,000.00,031.9,025.9,000.0,038.9,031.2,37.2,0000.0,0003.90,0009.14,0003.23
2023-07-27 16:54:00,SystemResetWarning,0833.7,5.01,000.00,032.1,025.2,000.0,038.9,031.1,35.8,0000.0,0003.92,0009.19,0003.25
2023-07-27 16:55:00,SystemResetWarning,0833.8,4.99,000.00,032.3,025.3,000.0,038.9,031.1,32.9,0000.0,0003.99,0009.37,0003.27
2023-07-27 16:56:00,SystemResetWarning,0833.8,4.99,000.00,032.3,025.7,000.0,039.0,031.1,33.7,0000.0,0004.02,0009.33,0003.29
2023-07-27 16:57:00,SystemResetWarning,0833.8,5.01,000.00,032.3,026.1,000.0,039.2,031.1,34.8,0000.0,0004.02,0009.34,0003.30
2023-07-27 16:58:00,SystemResetWarning,0833.9,5.01,000.00,032.4,026.6,000.0,039.3,031.2,32.8,0000.0,0004.09,0009.45,0003.32
2023-07-27 16:59:00,SystemResetWarning,0833.9,4.99,000.00,032.4,027.0,000.0,039.4,031.3,33.9,0000.0,0004.14,0008.99,0003.35
